Belvidere, Illinois, United States (61008)
Lat: 42.26N, Lon: 88.84W
Wx Zone: ILZ004
Local Info
Past Weather Observations for Tuesday, October 14, 2014

NOTE: This archive is for the closest National Weather Service station to Belvidere. Information may differ from the station used for current weather conditions.

Click here for Long-term Archive

Time Weather Temperature Dewpoint Humidity Pressure Winds Precip Visibility
23:54
Overcast
52°F / 11°C 48°F / 9°C 88% 29.71 in
(1006 mb)
N 16.1 mph
(N 26 kph)
0.00 in
(0.00 mm)
10SM
22:54
Overcast
Light Rain
52°F / 11°C 48°F / 9°C 88% 29.71 in
(1006 mb)
NNE 13.8 mph
(NNE 22 kph)
0.03 in
(0.76 mm)
5SM
22:02
Overcast
Light Rain
52°F / 11°C 48°F / 9°C 88% 29.71 in
(1006 mb)
NNE 17.3 mph
(NNE 28 kph)
0.00 in
(0.00 mm)
4SM
21:54
Overcast
Light Rain
52°F / 11°C 48°F / 9°C 88% 29.71 in
(1006 mb)
NE 17.3 mph
(NE 28 kph)
0.08 in
(2.03 mm)
2 1/2SM
21:42
Overcast
Light Rain
52°F / 11°C 48°F / 9°C 88% 29.71 in
(1006 mb)
N 13.8 mph
(N 22 kph)
0.08 in
(2.03 mm)
2 1/2SM
20:54
Overcast
Light Rain
54°F / 12°C 50°F / 10°C 88% 29.71 in
(1006 mb)
N 20.7 mph
(N 33 kph)
0.01 in
(0.25 mm)
2SM
20:05
Overcast
Light Rain
54°F / 12°C 50°F / 10°C 88% 29.68 in
(1005 mb)
N 18.4 mph
(N 30 kph)
0.00 in
(0.00 mm)
2 1/2SM
19:54
Overcast
Light Rain
54°F / 12°C 50°F / 10°C 88% 29.68 in
(1005 mb)
N 19.6 mph
(N 32 kph)
0.01 in
(0.25 mm)
2 1/2SM
18:54
Overcast
Light Rain
54°F / 12°C 52°F / 11°C 94% 29.65 in
(1004 mb)
N 19.6 mph
(N 32 kph)
0.02 in
(0.51 mm)
2SM
18:30
Overcast
Light Rain
55°F / 13°C 52°F / 11°C 88% 29.65 in
(1004 mb)
N 20.7 mph
(N 33 kph)
0.01 in
(0.25 mm)
2SM
17:54
Overcast
Light Rain
55°F / 13°C 54°F / 12°C 94% 29.62 in
(1003 mb)
N 16.1 mph
(N 26 kph)
0.06 in
(1.52 mm)
3SM
16:54
Overcast
Rain
57°F / 14°C 54°F / 12°C 88% 29.59 in
(1002 mb)
NE 19.6 mph
(NE 32 kph)
0.17 in
(4.32 mm)
4SM
16:37
Overcast
Rain
57°F / 14°C 55°F / 13°C 94% 29.59 in
(1002 mb)
NE 15 mph
(NE 24 kph)
0.14 in
(3.56 mm)
3SM
16:10
Overcast
Rain
59°F / 15°C 57°F / 14°C 94% 29.59 in
(1002 mb)
NE 9.2 mph
(NE 15 kph)
0.10 in
(2.54 mm)
2 1/2SM
16:00
Overcast
Heavy Rain
59°F / 15°C 55°F / 13°C 88% 29.56 in
(1001 mb)
NE 8.1 mph
(NE 13 kph)
0.04 in
(1.02 mm)
2 1/2SM
15:54
Overcast
Heavy Rain
59°F / 15°C 55°F / 13°C 88% 29.56 in
(1001 mb)
NE 11.5 mph
(NE 19 kph)
0.35 in
(8.89 mm)
2SM
15:41
Overcast
Heavy Rain
59°F / 15°C 57°F / 14°C 94% 29.56 in
(1001 mb)
ENE 10.4 mph
(ENE 17 kph)
0.19 in
(4.83 mm)
2 1/2SM
15:26
Overcast
Rain
61°F / 16°C 57°F / 14°C 88% 29.56 in
(1001 mb)
E 3.5 mph
(E 6 kph)
0.09 in
(2.29 mm)
3SM
14:54
Overcast
Rain
61°F / 16°C 57°F / 14°C 88% 29.53 in
(1000 mb)
E 9.2 mph
(E 15 kph)
0.12 in
(3.05 mm)
4SM
14:42
Overcast
Light Rain
61°F / 16°C 57°F / 14°C 88% 29.53 in
(1000 mb)
E 9.2 mph
(E 15 kph)
0.10 in
(2.54 mm)
4SM
13:54
Overcast
63°F / 17°C 57°F / 14°C 83% 29.5 in
(999 mb)
NE 5.8 mph
(NE 9 kph)
0.02 in
(0.51 mm)
10SM
13:50
Overcast
Light Rain
63°F / 17°C 57°F / 14°C 83% 29.5 in
(999 mb)
NE 4.6 mph
(NE 7 kph)
0.02 in
(0.51 mm)
9SM
12:54
Mostly Cloudy
Light Rain
63°F / 17°C 57°F / 14°C 83% 29.47 in
(998 mb)
SE 6.9 mph
(SE 11 kph)
0.00 in
(0.00 mm)
10SM
11:54
Overcast
64°F / 18°C 59°F / 15°C 83% 29.47 in
(998 mb)
ESE 4.6 mph
(ESE 7 kph)
0.04 in
(1.02 mm)
10SM
11:04
Overcast
Light Rain
63°F / 17°C 59°F / 15°C 88% 29.47 in
(998 mb)
E 3.5 mph
(E 6 kph)
0.02 in
(0.51 mm)
4SM
10:54
Overcast
Light Rain
63°F / 17°C 59°F / 15°C 88% 29.47 in
(998 mb)
ESE 4.6 mph
(ESE 7 kph)
0.00 in
(0.00 mm)
6SM
10:45
Overcast
Light Rain
64°F / 18°C 57°F / 14°C 78% 29.47 in
(998 mb)
ESE 6.9 mph
(ESE 11 kph)
0.00 in
(0.00 mm)
10SM
10:39
Overcast
64°F / 18°C 59°F / 15°C 83% 29.5 in
(999 mb)
E 6.9 mph
(E 11 kph)
- 10SM
10:14
Overcast
63°F / 17°C 59°F / 15°C 88% 29.47 in
(998 mb)
SE 5.8 mph
(SE 9 kph)
- 10SM
09:59
Overcast
64°F / 18°C 59°F / 15°C 83% 29.47 in
(998 mb)
SE 6.9 mph
(SE 11 kph)
- 10SM
09:54
Overcast
64°F / 18°C 59°F / 15°C 83% 29.47 in
(998 mb)
ESE 4.6 mph
(ESE 7 kph)
0.00 in
(0.00 mm)
10SM
09:30
Overcast
63°F / 17°C 59°F / 15°C 88% 29.47 in
(998 mb)
ESE 5.8 mph
(ESE 9 kph)
0.00 in
(0.00 mm)
10SM
08:54
Overcast
Light Rain
63°F / 17°C 59°F / 15°C 88% 29.5 in
(999 mb)
E 4.6 mph
(E 7 kph)
0.00 in
(0.00 mm)
9SM
07:54
Overcast
Light Rain
61°F / 16°C 57°F / 14°C 88% 29.5 in
(999 mb)
E 3.5 mph
(E 6 kph)
0.00 in
(0.00 mm)
10SM
06:54
Overcast
61°F / 16°C 57°F / 14°C 88% 29.5 in
(999 mb)
SE 6.9 mph
(SE 11 kph)
- 10SM
05:54
Overcast
59°F / 15°C 57°F / 14°C 94% 29.5 in
(999 mb)
SE 4.6 mph
(SE 7 kph)
- 10SM
05:37
Overcast
59°F / 15°C 55°F / 13°C 88% 29.5 in
(999 mb)
SE 4.6 mph
(SE 7 kph)
- 10SM
04:54
Overcast
61°F / 16°C 57°F / 14°C 88% 29.5 in
(999 mb)
SE 4.6 mph
(SE 7 kph)
- 10SM
04:30
Overcast
61°F / 16°C 57°F / 14°C 88% 29.5 in
(999 mb)
SE 6.9 mph
(SE 11 kph)
- 10SM
03:54
Overcast
61°F / 16°C 57°F / 14°C 88% 29.5 in
(999 mb)
S 8.1 mph
(S 13 kph)
- 10SM
03:50
Overcast
61°F / 16°C 57°F / 14°C 88% 29.5 in
(999 mb)
S 8.1 mph
(S 13 kph)
- 10SM
02:54
Overcast
63°F / 17°C 57°F / 14°C 83% 29.5 in
(999 mb)
S 9.2 mph
(S 15 kph)
- 10SM
02:46
Overcast
63°F / 17°C 57°F / 14°C 83% 29.5 in
(999 mb)
S 10.4 mph
(S 17 kph)
- 10SM
02:20
Overcast
63°F / 17°C 59°F / 15°C 88% 29.5 in
(999 mb)
S 12.7 mph
(S 20 kph)
- 10SM
01:54
Overcast
63°F / 17°C 59°F / 15°C 88% 29.5 in
(999 mb)
S 11.5 mph
(S 19 kph)
- 10SM
00:54
Overcast
63°F / 17°C 59°F / 15°C 88% 29.47 in
(998 mb)
SSE 13.8 mph
(SSE 22 kph)
- 10SM
00:47
Overcast
63°F / 17°C 59°F / 15°C 88% 29.5 in
(999 mb)
S 15 mph
(S 24 kph)
- 10SM
Time Weather Temperature Dewpoint Humidity Pressure Winds Precip Visibility


Weather for websites

WeatherForYou.com, LLC is not responsible for any damages or problems caused by this service. Current weather conditions are obtained from the closest station including government and personal stations which may have varying degrees of accuracy. Weather forecasts are derived from the NOAA NDFD. Like all things, this site belongs to Jesus Christ... He just trusts me to maintain it. If you have any questions or comments email webmaster@weatherforyou.com

Copyright © 2014, WeatherForYou.com LLC. All rights reserved.